Location: Zagreb
(45.8000°N, 16.0000°E)
Time: 19:19:08
(UTC+02:00)

A-11 Canister half - Pass Details

Date: 14 August 2022
Orbit: 1524 x 1684 km, 47.3° (Epoch: 05 October)

Event Time Altitude Azimuth Distance (km) Brightness Sun altitude
Rises 11:44:05 0° 293° (WNW) 4,939 11.4 54.6°
Reaches altitude 10° 11:47:22 10° 289° (WNW) 3,941 11.0 54.9°
Maximum altitude 11:57:01 53° 216° (SW) 1,969 10.6 55.8°
Drops below altitude 10° 12:06:24 10° 144° (SE) 3,830 11.8 56.5°
Sets 12:09:33 0° 139° (SE) 4,792 12.1 56.7°
